Terminal Aerodrome Forecast
Issued by NWS New Orleans/Baton Rouge, LA

Home | Current Version | Previous Version | Text Only | Print | Product List | Glossary On
Versions: 1 2 3 4 5 6 7 8 9 10 11 12 13 14 15 16 17 18 19 20 21 22 23 24 25
580
FTUS44 KLIX 091134
TAFNEW
TAF
KNEW 091134Z 0912/1012 30022KT P6SM SKC
     FM091700 30016G24KT P6SM SKC
     FM100000 30014KT P6SM SKC=

USA.gov is the U.S. government's official web portal to all federal, state and local government web resources and services.